User: anonymous   Login
Location: Vancouver
(49.2500°N, 123.1330°W)
Time: 15:26:03
(UTC-08:00)
Language:

Iridium 35 - Orbit

View from above orbital plane
View from above orbital plane
View from above satellite
View from above satellite

Ground track
Ground track

The orbit data is extracted from the following two-line orbital elements,

1 24966U 97056B   17017.50485634 -.00000070  00000-0 -32146-4 0  9994
2 24966  86.3943  21.6867 0002045  86.4240 273.7189 14.34214632 10937
Epoch (UTC): 17 January 2017 12:06:59
Eccentricity: 0.0002045
inclination: 86.3943°
perigee height: 776 km
apogee height: 779 km
right ascension of ascending node: 21.6867°
argument of perigee: 86.4240°
revolutions per day: 14.34214632
mean anomaly at epoch: 273.7189°
orbit number at epoch: 1093

The dashed part of the orbit path shows where the satellite is in the earth's shadow,  

DLR